�N����,�����b,�ŏ������i�x�j,���ϕ����i�x�j,�ő啗���i�x�j,�ŏ�����(m/s),���ϕ���(m/s),�ő啗��(m/s),�C��(���j,���x�i���j,�C��(hPa),�~�J��(mm),�~�J����(�b�j,�~�J���x(mm/h),�~�Ђ傤��(hit/���u),�~�Ђ傤����(�b�j,�~�Ђ傤���x(hit/���uh),�q�[�^���x(���j,�q�[�^�[�d���iV),�d���d���iV),�Q�Ɠd���iV)
2008/12/01,00:00:01,203,21,196,0.1,5.4,14.3,18.5,50.6,1016.4,0.00,0,0.0,0.0,0,0.0,17.4,0.0,12.1,3.473
2008/12/01,00:10:01,210,29,209,0.3,5.8,12.8,18.5,49.6,1016.3,0.00,0,0.0,0.0,0,0.0,17.4,0.0,12.0,3.474
2008/12/01,00:20:01,199,18,199,0.1,5.3,13.7,18.5,48.5,1016.3,0.00,0,0.0,0.0,0,0.0,17.5,0.0,11.8,3.474
2008/12/01,00:30:01,193,13,190,0.1,4.5,13.5,18.4,49.2,1016.2,0.00,0,0.0,0.0,0,0.0,17.4,0.0,12.0,3.475
2008/12/01,00:40:01,203,24,203,0.1,5.4,12.8,18.4,47.6,1016.2,0.00,0,0.0,0.0,0,0.0,17.4,0.0,11.9,3.473
2008/12/01,00:50:01,205,25,205,0.2,5.4,13.4,18.4,49.3,1016.1,0.00,0,0.0,0.0,0,0.0,17.4,0.0,12.1,3.473
2008/12/01,01:00:01,209,27,206,0.1,5.5,12.3,18.3,50.4,1016.0,0.00,0,0.0,0.0,0,0.0,17.0,0.0,11.9,3.473
2008/12/01,01:10:01,201,21,195,0.2,5.1,12.3,18.4,49.8,1016.1,0.00,0,0.0,0.0,0,0.0,17.2,0.0,12.1,3.475
2008/12/01,01:20:01,221,37,215,0.0,6.0,10.8,18.2,48.7,1015.9,0.00,0,0.0,0.0,0,0.0,16.9,0.0,12.1,3.474
2008/12/01,01:30:01,208,27,207,0.0,5.5,10.3,17.7,52.0,1015.8,0.00,0,0.0,0.0,0,0.0,16.4,0.0,12.0,3.473
2008/12/01,01:40:01,205,25,204,0.1,5.5,12.4,18.0,52.4,1015.8,0.00,0,0.0,0.0,0,0.0,16.9,0.0,12.0,3.475
2008/12/01,01:50:01,207,22,205,0.1,5.1,11.7,18.3,50.1,1015.8,0.00,0,0.0,0.0,0,0.0,17.0,0.0,11.9,3.474
2008/12/01,02:00:01,205,26,200,0.0,5.6,11.0,18.0,51.2,1015.8,0.00,0,0.0,0.0,0,0.0,16.9,0.0,11.9,3.474
2008/12/01,02:10:01,223,42,222,0.0,6.2,11.7,17.8,52.0,1015.8,0.00,0,0.0,0.0,0,0.0,16.5,0.0,11.8,3.476
2008/12/01,02:20:01,220,39,219,0.0,6.0,9.9,17.8,51.3,1015.8,0.00,0,0.0,0.0,0,0.0,16.5,0.0,11.8,3.475
2008/12/01,02:30:01,235,49,221,0.1,6.2,9.8,17.7,49.5,1015.6,0.00,0,0.0,0.0,0,0.0,16.5,0.0,11.9,3.474
2008/12/01,02:40:01,231,49,221,0.1,5.9,9.3,17.3,51.4,1015.4,0.00,0,0.0,0.0,0,0.0,16.0,0.0,11.8,3.473
2008/12/01,02:50:01,260,52,227,0.2,5.8,8.7,17.5,51.3,1015.3,0.00,0,0.0,0.0,0,0.0,15.9,0.0,11.9,3.473
2008/12/01,03:00:01,226,45,219,0.1,5.9,9.7,17.5,51.3,1015.3,0.00,0,0.0,0.0,0,0.0,16.2,0.0,11.9,3.473
2008/12/01,03:10:01,221,41,220,0.0,5.8,9.8,17.4,52.4,1015.1,0.00,0,0.0,0.0,0,0.0,15.9,0.0,11.8,3.473
2008/12/01,03:20:01,231,50,224,0.1,5.9,10.4,17.4,51.0,1015.0,0.00,0,0.0,0.0,0,0.0,15.9,0.0,11.7,3.474
2008/12/01,03:30:01,228,46,210,0.1,6.3,9.7,17.6,50.2,1014.9,0.00,0,0.0,0.0,0,0.0,16.2,0.0,11.9,3.473
2008/12/01,03:40:01,232,48,228,0.0,6.0,10.3,17.6,49.6,1014.8,0.00,0,0.0,0.0,0,0.0,16.2,0.0,11.8,3.473
2008/12/01,03:50:01,224,42,219,0.1,6.1,11.1,17.5,50.8,1014.7,0.00,0,0.0,0.0,0,0.0,16.0,0.0,11.9,3.473
2008/12/01,04:00:01,223,41,223,0.0,6.1,10.9,17.6,50.8,1014.7,0.00,0,0.0,0.0,0,0.0,16.2,0.0,11.7,3.475
2008/12/01,04:10:01,219,39,219,0.1,6.1,10.4,17.7,53.0,1014.7,0.00,0,0.0,0.0,0,0.0,16.2,0.0,11.9,3.475
2008/12/01,04:20:01,224,44,221,0.1,5.9,9.8,17.6,53.7,1014.6,0.00,0,0.0,0.0,0,0.0,16.2,0.0,11.9,3.473
2008/12/01,04:30:01,219,37,216,0.1,6.1,10.9,17.7,54.2,1014.6,0.00,0,0.0,0.0,0,0.0,16.4,0.0,11.9,3.476
2008/12/01,04:40:01,216,35,209,0.1,6.0,12.3,17.8,55.3,1014.5,0.00,0,0.0,0.0,0,0.0,16.5,0.0,11.8,3.474
2008/12/01,04:50:01,220,37,216,0.1,6.2,12.1,17.8,56.3,1014.4,0.00,0,0.0,0.0,0,0.0,16.4,0.0,11.9,3.473
2008/12/01,05:00:01,222,39,218,0.1,6.2,13.1,17.9,56.2,1014.5,0.00,0,0.0,0.0,0,0.0,16.5,0.0,11.6,3.473
2008/12/01,05:10:01,223,40,221,0.1,6.0,10.6,17.8,56.9,1014.5,0.00,0,0.0,0.0,0,0.0,16.5,0.0,11.8,3.474
2008/12/01,05:20:01,221,41,219,0.1,5.9,10.7,17.9,57.4,1014.7,0.00,0,0.0,0.0,0,0.0,16.5,0.0,11.8,3.473
2008/12/01,05:30:01,226,46,220,0.0,6.2,10.0,18.1,55.6,1014.7,0.00,0,0.0,0.0,0,0.0,16.7,0.0,11.8,3.474
2008/12/01,05:40:01,223,42,221,0.1,6.0,9.6,17.9,55.1,1014.9,0.00,0,0.0,0.0,0,0.0,16.5,0.0,12.0,3.474
2008/12/01,05:50:01,235,46,223,0.0,6.2,9.2,18.0,56.0,1014.9,0.00,0,0.0,0.0,0,0.0,16.7,0.0,11.9,3.474
2008/12/01,06:00:01,229,45,222,0.1,5.9,9.3,17.9,58.0,1014.9,0.00,0,0.0,0.0,0,0.0,16.5,0.0,11.9,3.472
2008/12/01,06:10:01,223,41,219,0.1,6.0,10.4,17.9,59.9,1014.9,0.00,0,0.0,0.0,0,0.0,16.7,0.0,12.1,3.473
2008/12/01,06:20:01,222,42,220,0.1,6.0,10.7,18.0,61.2,1015.0,0.00,0,0.0,0.0,0,0.0,16.5,0.0,11.9,3.473
2008/12/01,06:30:01,223,41,219,0.1,6.0,12.7,18.2,62.0,1015.1,0.00,0,0.0,0.0,0,0.0,16.7,0.0,12.1,3.474
2008/12/01,06:40:01,224,43,221,0.1,5.8,12.2,18.2,62.3,1015.1,0.00,0,0.0,0.0,0,0.0,17.2,0.0,12.2,3.472
2008/12/01,06:50:01,225,42,221,0.1,6.1,9.8,18.2,63.3,1015.3,0.00,0,0.0,0.0,0,0.0,17.0,0.0,12.1,3.475
2008/12/01,07:00:01,221,41,219,0.1,5.6,11.8,18.4,64.8,1015.3,0.00,0,0.0,0.0,0,0.0,17.4,0.0,12.1,3.474
2008/12/01,07:10:01,240,59,238,0.1,4.9,10.2,18.3,64.1,1015.4,0.00,0,0.0,0.0,0,0.0,17.2,0.0,12.1,3.473
2008/12/01,07:20:01,242,62,241,0.1,4.4,12.8,18.4,64.6,1015.5,0.00,0,0.0,0.0,0,0.0,17.4,0.0,12.0,3.474
2008/12/01,07:30:01,242,59,238,0.1,4.2,11.7,18.6,63.1,1015.6,0.00,0,0.0,0.0,0,0.0,17.5,0.0,12.0,3.473
2008/12/01,07:40:01,252,71,247,0.0,4.0,11.4,18.9,63.7,1015.7,0.00,0,0.0,0.0,0,0.0,17.9,0.0,11.8,3.474
2008/12/01,07:50:01,254,60,240,0.1,5.2,13.1,19.0,64.6,1015.7,0.00,0,0.0,0.0,0,0.0,18.2,0.0,12.0,3.474
2008/12/01,08:00:01,238,58,225,0.0,5.1,12.9,19.0,63.6,1015.8,0.00,0,0.0,0.0,0,0.0,18.7,0.0,12.0,3.473
2008/12/01,08:10:01,237,52,232,0.0,5.6,11.8,19.3,63.4,1015.9,0.00,0,0.0,0.0,0,0.0,19.1,0.0,12.0,3.473
2008/12/01,08:20:01,230,50,230,0.0,5.5,12.1,19.2,63.0,1016.0,0.00,0,0.0,0.0,0,0.0,18.9,0.0,12.0,3.472
2008/12/01,08:30:01,241,58,235,0.0,5.7,12.1,19.3,62.9,1016.1,0.00,0,0.0,0.0,0,0.0,19.1,0.0,11.7,3.474
2008/12/01,08:40:01,238,55,228,0.1,5.8,11.9,19.2,62.9,1016.2,0.00,0,0.0,0.0,0,0.0,18.7,0.0,11.7,3.474
2008/12/01,08:50:01,242,60,216,0.1,5.8,12.1,19.4,62.8,1016.3,0.00,0,0.0,0.0,0,0.0,19.1,0.0,11.9,3.473
2008/12/01,09:00:01,243,60,240,0.0,6.0,11.9,19.3,64.1,1016.3,0.00,0,0.0,0.0,0,0.0,19.1,0.0,11.8,3.472
2008/12/01,09:10:01,242,61,239,0.1,5.8,12.3,19.4,63.3,1016.3,0.00,0,0.0,0.0,0,0.0,18.9,0.0,11.9,3.473
2008/12/01,09:20:01,244,62,242,0.1,5.6,12.4,19.6,62.7,1016.3,0.00,0,0.0,0.0,0,0.0,19.9,0.0,12.0,3.473
2008/12/01,09:30:01,256,64,244,0.1,6.0,12.7,19.5,62.3,1016.4,0.00,0,0.0,0.0,0,0.0,19.7,0.0,12.1,3.473
2008/12/01,09:40:01,252,68,245,0.1,5.8,11.7,19.7,61.4,1016.4,0.00,0,0.0,0.0,0,0.0,19.9,0.0,11.8,3.473
2008/12/01,09:50:01,249,64,244,0.1,5.5,11.9,19.6,63.6,1016.4,0.00,0,0.0,0.0,0,0.0,19.9,0.0,12.1,3.472
2008/12/01,10:00:01,240,59,236,0.1,6.0,12.8,19.4,62.7,1016.4,0.00,0,0.0,0.0,0,0.0,19.4,0.0,11.7,3.473
2008/12/01,10:10:01,255,61,238,0.1,5.7,12.3,19.4,63.6,1016.4,0.00,0,0.0,0.0,0,0.0,19.4,0.0,12.1,3.474
2008/12/01,10:20:01,247,64,237,0.1,5.7,14.8,19.6,61.4,1016.4,0.00,0,0.0,0.0,0,0.0,20.1,0.0,12.0,3.473
2008/12/01,10:30:01,238,59,226,0.1,5.8,11.6,19.5,63.1,1016.4,0.00,0,0.0,0.0,0,0.0,19.7,0.0,11.8,3.472
2008/12/01,10:40:01,247,67,242,0.1,6.0,11.8,19.7,61.7,1016.4,0.00,0,0.0,0.0,0,0.0,19.9,0.0,11.9,3.473
2008/12/01,10:50:01,255,63,241,0.2,5.9,13.7,19.6,62.7,1016.2,0.00,0,0.0,0.0,0,0.0,19.9,0.0,11.9,3.472
2008/12/01,11:00:01,249,66,244,0.1,5.6,13.4,19.9,62.1,1016.1,0.00,0,0.0,0.0,0,0.0,20.4,0.0,12.0,3.470
2008/12/01,11:10:01,254,68,236,0.1,5.8,12.7,19.9,61.9,1016.0,0.00,0,0.0,0.0,0,0.0,20.6,0.0,12.1,3.473
2008/12/01,11:20:01,252,64,243,0.1,5.4,12.2,20.2,62.3,1016.0,0.00,0,0.0,0.0,0,0.0,20.9,0.0,11.8,3.473
2008/12/01,11:30:01,246,66,244,0.1,6.0,14.5,19.8,62.6,1015.8,0.00,0,0.0,0.0,0,0.0,20.2,0.0,12.1,3.472
2008/12/01,11:40:01,252,68,237,0.0,5.3,12.8,20.5,59.8,1015.6,0.00,0,0.0,0.0,0,0.0,21.7,0.0,12.0,3.472
2008/12/01,11:50:01,252,71,249,0.1,5.7,14.0,20.4,59.3,1015.4,0.00,0,0.0,0.0,0,0.0,21.7,0.0,11.9,3.472
2008/12/01,12:00:01,249,69,241,0.1,6.1,14.2,20.1,62.0,1015.2,0.00,0,0.0,0.0,0,0.0,20.6,0.0,11.7,3.472
2008/12/01,12:10:01,247,66,246,0.3,6.2,13.0,20.7,60.5,1015.0,0.00,0,0.0,0.0,0,0.0,22.2,0.0,12.1,3.470
2008/12/01,12:20:01,239,52,233,0.1,6.5,11.9,21.0,57.2,1014.8,0.00,0,0.0,0.0,0,0.0,23.1,0.0,12.1,3.472
2008/12/01,12:30:01,232,51,230,0.2,6.6,13.7,21.0,56.8,1014.5,0.00,0,0.0,0.0,0,0.0,23.3,0.0,12.1,3.470
2008/12/01,12:40:01,232,52,230,0.1,6.5,13.8,21.1,57.3,1014.5,0.00,0,0.0,0.0,0,0.0,23.3,0.0,12.0,3.470
2008/12/01,12:50:01,229,47,227,0.1,6.2,12.3,21.1,56.1,1014.3,0.00,0,0.0,0.0,0,0.0,23.3,0.0,12.0,3.472
2008/12/01,13:00:01,237,53,233,0.2,6.5,13.4,21.0,56.6,1014.1,0.00,0,0.0,0.0,0,0.0,23.1,0.0,11.9,3.472
2008/12/01,13:10:01,234,54,233,0.1,6.3,12.9,21.0,58.4,1014.0,0.00,0,0.0,0.0,0,0.0,23.1,0.0,11.8,3.472
2008/12/01,13:20:01,229,48,227,0.0,6.1,12.5,21.0,57.4,1013.8,0.00,0,0.0,0.0,0,0.0,23.1,0.0,11.9,3.472
2008/12/01,13:30:01,229,48,227,0.1,5.8,12.0,21.0,57.1,1013.7,0.00,0,0.0,0.0,0,0.0,23.1,0.0,12.0,3.470
2008/12/01,13:40:01,224,45,219,0.1,6.1,13.4,21.0,58.1,1013.6,0.00,0,0.0,0.0,0,0.0,23.3,0.0,11.8,3.472
2008/12/01,13:50:01,230,49,229,0.1,6.5,12.9,21.1,57.4,1013.5,0.00,0,0.0,0.0,0,0.0,22.9,0.0,12.0,3.472
2008/12/01,14:00:01,227,44,221,0.1,6.0,13.0,21.1,56.5,1013.5,0.00,0,0.0,0.0,0,0.0,23.4,0.0,11.8,3.470
2008/12/01,14:10:01,227,48,226,0.1,5.3,10.7,21.2,57.0,1013.4,0.00,0,0.0,0.0,0,0.0,23.4,0.0,12.0,3.472
2008/12/01,14:20:01,229,48,227,0.0,5.2,10.9,21.3,55.3,1013.5,0.00,0,0.0,0.0,0,0.0,23.8,0.0,11.8,3.472
2008/12/01,14:30:01,221,41,220,0.0,5.5,12.4,21.1,57.6,1013.3,0.00,0,0.0,0.0,0,0.0,23.6,0.0,11.8,3.473
2008/12/01,14:40:01,226,45,224,0.1,5.7,11.7,21.4,56.8,1013.3,0.00,0,0.0,0.0,0,0.0,23.6,0.0,11.8,3.472
2008/12/01,14:50:01,223,41,221,0.1,5.3,11.2,21.2,57.4,1013.3,0.00,0,0.0,0.0,0,0.0,23.6,0.0,11.8,3.472
2008/12/01,15:00:01,224,44,217,0.2,5.7,10.6,21.0,56.8,1013.3,0.00,0,0.0,0.0,0,0.0,23.1,0.0,11.9,3.472
2008/12/01,15:10:01,229,48,226,0.1,5.4,10.4,20.8,56.2,1013.2,0.00,0,0.0,0.0,0,0.0,22.7,0.0,11.8,3.470
2008/12/01,15:20:01,230,48,223,0.0,5.3,9.5,20.8,55.6,1013.2,0.00,0,0.0,0.0,0,0.0,22.7,0.0,12.0,3.472
2008/12/01,15:30:01,229,45,218,0.1,5.5,10.4,20.7,56.8,1013.2,0.00,0,0.0,0.0,0,0.0,22.6,0.0,12.1,3.473
2008/12/01,15:40:01,230,47,226,0.1,5.5,10.7,20.7,57.9,1013.2,0.00,0,0.0,0.0,0,0.0,22.2,0.0,12.1,3.472
2008/12/01,15:50:01,235,48,227,0.1,6.1,10.2,20.7,59.4,1013.1,0.00,0,0.0,0.0,0,0.0,22.2,0.0,12.0,3.472
2008/12/01,16:00:01,230,44,223,0.1,6.5,12.3,20.6,59.5,1013.0,0.00,0,0.0,0.0,0,0.0,21.7,0.0,12.0,3.472
2008/12/01,16:10:01,230,47,223,0.0,6.5,11.1,20.3,59.0,1013.0,0.00,0,0.0,0.0,0,0.0,21.2,0.0,12.0,3.472
2008/12/01,16:20:01,234,55,228,0.0,6.5,10.7,20.1,58.9,1013.0,0.00,0,0.0,0.0,0,0.0,20.9,0.0,12.0,3.473
2008/12/01,16:30:01,238,46,227,0.1,6.2,10.5,20.0,59.5,1013.0,0.00,0,0.0,0.0,0,0.0,20.6,0.0,11.9,3.473
2008/12/01,16:40:01,255,56,227,0.1,5.7,10.9,19.8,60.5,1013.1,0.00,0,0.0,0.0,0,0.0,20.2,0.0,12.0,3.472
2008/12/01,16:50:01,245,66,242,0.1,5.8,10.6,19.7,61.0,1013.2,0.00,0,0.0,0.0,0,0.0,19.9,0.0,12.0,3.474
2008/12/01,17:00:01,236,51,230,0.2,5.8,9.9,19.6,62.1,1013.4,0.00,0,0.0,0.0,0,0.0,19.2,0.0,11.8,3.472
2008/12/01,17:20:42,55,55,55,////,////,////,////,////,////,////,////,////,////,////,////,////,////,////,////
2008/12/01,17:30:01,240,52,232,0.0,5.4,10.3,19.4,63.6,1013.4,0.00,0,0.0,0.0,0,0.0,18.6,0.0,11.7,3.473
2008/12/01,17:40:01,237,48,224,0.0,5.4,10.6,19.2,63.6,1013.5,0.00,0,0.0,0.0,0,0.0,18.2,0.0,11.8,3.473
2008/12/01,17:50:01,234,52,228,0.1,5.4,11.8,19.2,64.5,1013.4,0.00,0,0.0,0.0,0,0.0,18.4,0.0,11.9,3.473
2008/12/01,18:00:01,238,57,235,0.1,5.7,11.3,19.4,63.7,1013.5,0.00,0,0.0,0.0,0,0.0,18.2,0.0,12.0,3.474
2008/12/01,18:10:01,236,55,224,0.0,5.6,11.0,19.4,63.3,1013.6,0.00,0,0.0,0.0,0,0.0,18.4,0.0,11.8,3.473
2008/12/01,18:20:01,262,66,242,0.1,5.2,11.8,19.4,62.9,1013.7,0.00,0,0.0,0.0,0,0.0,18.2,0.0,11.7,3.474
2008/12/01,18:30:01,245,64,243,0.1,5.1,11.0,19.3,63.3,1013.7,0.00,0,0.0,0.0,0,0.0,18.2,0.0,11.7,3.473
2008/12/01,18:40:01,246,63,240,0.0,5.1,11.0,19.4,62.5,1013.8,0.00,0,0.0,0.0,0,0.0,18.2,0.0,12.0,3.472
2008/12/01,18:50:01,239,58,236,0.1,5.1,10.2,19.3,62.9,1013.9,0.00,0,0.0,0.0,0,0.0,18.2,0.0,12.0,3.473
2008/12/01,19:00:01,248,59,239,0.1,5.1,12.0,19.2,62.6,1013.9,0.00,0,0.0,0.0,0,0.0,18.0,0.0,12.0,3.473
2008/12/01,19:10:01,241,57,236,0.1,4.8,10.9,19.3,62.5,1014.0,0.00,0,0.0,0.0,0,0.0,18.2,0.0,11.9,3.472
2008/12/01,19:20:01,238,59,236,0.1,4.8,11.1,19.3,61.0,1014.0,0.00,0,0.0,0.0,0,0.0,18.2,0.0,11.8,3.472
2008/12/01,19:30:01,260,60,242,0.1,4.9,10.5,19.3,60.8,1014.1,0.00,0,0.0,0.0,0,0.0,18.2,0.0,11.7,3.473
2008/12/01,19:40:01,246,65,240,0.1,4.2,11.5,19.2,61.9,1014.1,0.00,0,0.0,0.0,0,0.0,17.9,0.0,11.9,3.474
2008/12/01,19:50:01,244,63,239,0.0,4.3,10.2,19.2,62.1,1014.0,0.00,0,0.0,0.0,0,0.0,17.9,0.0,12.0,3.472
2008/12/01,20:00:01,252,70,249,0.0,5.2,11.7,19.4,61.5,1014.1,0.00,0,0.0,0.0,0,0.0,18.2,0.0,11.9,3.473
2008/12/01,20:10:01,254,71,249,0.0,5.1,10.9,19.4,60.9,1013.9,0.00,0,0.0,0.0,0,0.0,18.2,0.0,12.0,3.473
2008/12/01,20:20:01,255,69,238,0.1,5.3,13.2,19.4,60.6,1013.9,0.00,0,0.0,0.0,0,0.0,18.4,0.0,12.0,3.474
2008/12/01,20:30:01,256,68,245,0.0,4.7,12.4,19.3,61.1,1013.9,0.00,0,0.0,0.0,0,0.0,18.4,0.0,11.7,3.473
2008/12/01,20:40:01,252,69,242,0.1,5.0,10.9,19.3,61.2,1013.9,0.00,0,0.0,0.0,0,0.0,18.2,0.0,11.9,3.472
2008/12/01,20:50:01,257,70,243,0.0,5.1,12.1,19.4,60.6,1014.0,0.00,0,0.0,0.0,0,0.0,18.2,0.0,12.0,3.474
2008/12/01,21:00:01,257,69,243,0.1,5.3,11.8,19.4,60.3,1014.0,0.00,0,0.0,0.0,0,0.0,18.4,0.0,11.7,3.473
2008/12/01,21:10:01,242,61,241,0.1,4.4,11.4,19.2,60.2,1014.0,0.00,0,0.0,0.0,0,0.0,18.2,0.0,11.9,3.473
2008/12/01,21:20:01,253,64,242,0.0,4.4,10.6,19.2,60.0,1014.0,0.00,0,0.0,0.0,0,0.0,18.0,0.0,11.9,3.473
2008/12/01,21:30:01,244,63,239,0.0,4.3,11.1,19.2,59.5,1014.1,0.00,0,0.0,0.0,0,0.0,18.0,0.0,11.7,3.474
2008/12/01,21:40:01,242,62,240,0.0,4.6,10.6,19.3,57.8,1014.1,0.00,0,0.0,0.0,0,0.0,18.2,0.0,11.7,3.473
2008/12/01,21:50:01,246,63,242,0.1,4.6,11.7,19.4,62.0,1014.2,0.00,0,0.0,0.0,0,0.0,18.4,0.0,11.7,3.473
2008/12/01,22:00:01,254,64,241,0.1,5.2,10.9,19.5,61.5,1014.1,0.00,0,0.0,0.0,0,0.0,18.4,0.0,11.7,3.474
2008/12/01,22:10:01,252,64,245,0.0,5.1,10.5,19.5,62.1,1014.0,0.00,0,0.0,0.0,0,0.0,18.4,0.0,11.7,3.473
2008/12/01,22:20:01,244,67,244,0.2,4.8,13.9,19.4,62.6,1013.9,0.00,0,0.0,0.0,0,0.0,18.6,0.0,11.7,3.473
2008/12/01,22:30:01,246,65,242,0.1,4.7,12.0,19.4,62.2,1013.7,0.00,0,0.0,0.0,0,0.0,18.2,0.0,11.8,3.473
2008/12/01,22:40:01,253,64,242,0.1,4.9,12.8,19.4,61.8,1013.7,0.00,0,0.0,0.0,0,0.0,18.4,0.0,11.9,3.474
2008/12/01,22:50:01,254,71,244,0.0,5.2,11.6,19.5,61.4,1013.8,0.00,0,0.0,0.0,0,0.0,18.4,0.0,12.0,3.474
2008/12/01,23:00:01,263,70,244,0.1,4.7,12.1,19.4,61.8,1013.8,0.00,0,0.0,0.0,0,0.0,18.4,0.0,11.7,3.473
2008/12/01,23:10:01,253,64,237,0.1,4.9,11.6,19.4,62.1,1013.8,0.00,0,0.0,0.0,0,0.0,18.4,0.0,12.0,3.473
2008/12/01,23:20:01,252,65,242,0.1,4.9,11.5,19.4,61.6,1013.6,0.00,0,0.0,0.0,0,0.0,18.2,0.0,11.8,3.473
2008/12/01,23:30:01,252,65,241,0.0,5.2,11.8,19.6,61.5,1013.4,0.00,0,0.0,0.0,0,0.0,18.4,0.0,11.7,3.473
2008/12/01,23:40:01,246,67,245,0.1,4.8,12.6,19.4,61.6,1013.3,0.00,0,0.0,0.0,0,0.0,18.2,0.0,11.7,3.473
2008/12/01,23:50:01,249,64,240,0.0,4.7,11.2,19.4,62.0,1013.3,0.00,0,0.0,0.0,0,0.0,18.2,0.0,11.7,3.473
2008/12/02,00:00:01,256,62,233,0.1,5.0,12.5,19.5,61.4,1013.4,0.00,0,0.0,0.0,0,0.0,18.4,0.0,11.8,3.473
2008/12/02,00:10:01,243,64,239,0.0,4.8,12.6,19.3,61.5,1013.4,0.00,0,0.0,0.0,0,0.0,18.4,0.0,11.7,3.473
2008/12/02,00:20:01,243,63,229,0.2,4.7,12.2,19.4,61.6,1013.3,0.00,0,0.0,0.0,0,0.0,18.2,0.0,11.6,3.473
2008/12/02,00:30:01,241,58,238,0.1,4.6,13.2,19.3,60.6,1013.2,0.00,0,0.0,0.0,0,0.0,18.2,0.0,12.0,3.473
2008/12/02,00:40:01,243,61,238,0.1,4.7,11.3,19.5,60.5,1013.2,0.00,0,0.0,0.0,0,0.0,18.4,0.0,11.7,3.473
2008/12/02,00:50:01,238,57,237,0.0,4.8,11.8,19.4,61.8,1013.1,0.00,0,0.0,0.0,0,0.0,18.4,0.0,12.0,3.473
2008/12/02,01:00:01,248,58,237,0.1,4.9,13.1,19.4,61.9,1013.0,0.00,0,0.0,0.0,0,0.0,18.2,0.0,12.0,3.474
2008/12/02,01:10:01,244,63,243,0.1,4.8,10.2,19.3,62.3,1013.0,0.00,0,0.0,0.0,0,0.0,18.2,0.0,11.7,3.473
2008/12/02,01:20:01,246,62,240,0.1,4.8,12.2,19.3,60.3,1012.8,0.00,0,0.0,0.0,0,0.0,18.4,0.0,11.8,3.473
2008/12/02,01:30:01,240,61,234,0.0,4.6,11.2,19.2,60.9,1012.8,0.00,0,0.0,0.0,0,0.0,18.2,0.0,11.8,3.473
2008/12/02,01:40:01,242,62,235,0.0,4.7,11.9,19.3,61.6,1012.8,0.00,0,0.0,0.0,0,0.0,18.0,0.0,11.7,3.474
2008/12/02,01:50:01,246,59,236,0.0,4.7,10.8,19.3,61.4,1012.9,0.00,0,0.0,0.0,0,0.0,18.2,0.0,12.0,3.473
2008/12/02,02:00:01,246,62,237,0.1,5.2,11.0,19.4,60.4,1012.9,0.00,0,0.0,0.0,0,0.0,18.2,0.0,11.8,3.473
2008/12/02,02:10:01,240,59,237,0.0,5.3,12.3,19.6,62.5,1012.8,0.00,0,0.0,0.0,0,0.0,18.6,0.0,11.9,3.473
2008/12/02,02:20:01,252,57,228,0.1,5.4,14.1,19.7,60.6,1012.6,0.00,0,0.0,0.0,0,0.0,18.7,0.0,11.7,3.473
2008/12/02,02:30:01,250,67,240,0.1,5.7,12.2,19.8,59.8,1012.7,0.00,0,0.0,0.0,0,0.0,18.9,0.0,11.7,3.470
2008/12/02,02:40:01,239,58,223,0.1,5.6,12.2,19.9,61.9,1012.6,0.00,0,0.0,0.0,0,0.0,18.9,0.0,11.9,3.473
2008/12/02,02:50:01,239,52,229,0.0,5.4,12.6,19.8,59.9,1012.5,0.00,0,0.0,0.0,0,0.0,19.1,0.0,11.9,3.473
2008/12/02,03:00:01,234,52,232,0.0,5.7,11.9,19.7,58.1,1012.6,0.00,0,0.0,0.0,0,0.0,18.9,0.0,11.7,3.473
2008/12/02,03:10:01,231,48,228,0.0,5.4,11.4,19.7,58.5,1012.6,0.00,0,0.0,0.0,0,0.0,18.9,0.0,11.8,3.473
2008/12/02,03:20:01,230,49,220,0.1,5.4,11.6,19.7,59.2,1012.5,0.00,0,0.0,0.0,0,0.0,18.9,0.0,11.8,3.473
2008/12/02,03:30:01,235,53,228,0.2,5.7,12.4,19.8,59.9,1012.5,0.00,0,0.0,0.0,0,0.0,19.1,0.0,11.7,3.474
2008/12/02,03:40:01,253,55,231,0.1,5.5,11.8,19.9,63.5,1012.3,0.00,0,0.0,0.0,0,0.0,19.1,0.0,11.9,3.472
2008/12/02,03:50:01,234,53,231,0.1,5.5,11.8,19.8,63.0,1012.2,0.00,0,0.0,0.0,0,0.0,19.1,0.0,11.9,3.473
2008/12/02,04:00:01,233,53,226,0.1,5.5,13.3,19.7,62.7,1012.2,0.00,0,0.0,0.0,0,0.0,18.7,0.0,12.0,3.474
2008/12/02,04:10:01,240,56,234,0.1,5.3,12.5,19.8,63.3,1012.1,0.00,0,0.0,0.0,0,0.0,18.9,0.0,11.7,3.473
2008/12/02,04:20:01,239,59,232,0.1,5.5,12.9,19.8,62.0,1012.1,0.00,0,0.0,0.0,0,0.0,18.9,0.0,11.8,3.473
2008/12/02,04:30:01,239,59,238,0.0,5.1,13.8,19.6,62.5,1012.1,0.00,0,0.0,0.0,0,0.0,18.7,0.0,11.9,3.472
2008/12/02,04:40:01,246,60,227,0.1,4.8,12.3,19.6,61.0,1012.1,0.00,0,0.0,0.0,0,0.0,18.7,0.0,11.8,3.473
2008/12/02,04:50:01,239,58,233,0.1,4.8,13.7,19.6,62.0,1012.1,0.00,0,0.0,0.0,0,0.0,18.7,0.0,11.7,3.474
2008/12/02,05:00:01,241,59,231,0.0,4.7,12.6,19.5,61.7,1012.0,0.00,0,0.0,0.0,0,0.0,18.6,0.0,12.0,3.473
2008/12/02,05:10:01,245,59,239,0.0,4.6,12.1,19.5,62.9,1011.9,0.00,0,0.0,0.0,0,0.0,18.4,0.0,11.8,3.472
2008/12/02,05:20:01,244,61,240,0.0,4.7,13.9,19.4,62.4,1012.0,0.00,0,0.0,0.0,0,0.0,18.4,0.0,11.9,3.472
2008/12/02,05:30:01,238,53,227,0.0,5.1,13.3,19.5,63.6,1012.1,0.00,0,0.0,0.0,0,0.0,18.6,0.0,12.0,3.473
2008/12/02,05:40:01,237,51,228,0.1,4.7,12.4,19.5,63.8,1012.3,0.00,0,0.0,0.0,0,0.0,18.4,0.0,11.8,3.474
2008/12/02,05:50:01,238,54,234,0.0,4.7,13.0,19.5,63.2,1012.4,0.00,0,0.0,0.0,0,0.0,18.4,0.0,11.7,3.474
2008/12/02,06:00:01,236,53,228,0.1,4.9,13.5,19.5,63.4,1012.5,0.00,0,0.0,0.0,0,0.0,18.2,0.0,12.0,3.473
2008/12/02,06:10:01,239,56,230,0.1,4.7,12.2,19.4,62.4,1012.6,0.00,0,0.0,0.0,0,0.0,18.4,0.0,11.8,3.472
2008/12/02,06:20:01,237,54,231,0.1,4.9,13.1,19.5,64.6,1012.5,0.00,0,0.0,0.0,0,0.0,18.4,0.0,12.0,3.473
2008/12/02,06:30:01,243,57,236,0.1,4.7,13.8,19.4,63.6,1012.6,0.00,0,0.0,0.0,0,0.0,18.2,0.0,11.7,3.474
2008/12/02,06:40:01,235,54,233,0.1,4.8,14.3,19.4,62.9,1012.6,0.00,0,0.0,0.0,0,0.0,18.2,0.0,11.9,3.473
2008/12/02,06:50:01,249,61,233,0.1,4.9,13.3,19.3,62.1,1012.6,0.00,0,0.0,0.0,0,0.0,18.4,0.0,12.0,3.474
2008/12/02,07:00:01,238,57,227,0.1,4.8,13.1,19.4,61.4,1012.7,0.00,0,0.0,0.0,0,0.0,18.4,0.0,11.7,3.474
2008/12/02,07:10:01,239,53,231,0.1,5.2,15.0,19.5,61.4,1012.7,0.00,0,0.0,0.0,0,0.0,18.6,0.0,12.0,3.476
2008/12/02,07:20:01,261,61,235,0.1,5.2,14.2,19.6,60.2,1012.7,0.00,0,0.0,0.0,0,0.0,18.7,0.0,11.9,3.473
2008/12/02,07:30:01,236,54,233,0.1,5.2,13.7,19.6,60.8,1012.7,0.00,0,0.0,0.0,0,0.0,19.2,0.0,11.7,3.473
2008/12/02,07:40:01,237,55,235,0.0,4.9,13.8,19.7,60.6,1012.8,0.00,0,0.0,0.0,0,0.0,18.9,0.0,11.7,3.473
2008/12/02,07:50:01,257,55,227,0.1,4.8,13.2,19.7,61.1,1012.9,0.00,0,0.0,0.0,0,0.0,19.4,0.0,11.9,3.474
2008/12/02,08:00:01,239,55,228,0.0,5.1,13.8,19.7,61.2,1013.0,0.00,0,0.0,0.0,0,0.0,19.6,0.0,11.9,3.472
2008/12/02,08:10:01,239,57,231,0.2,5.1,14.1,19.8,60.2,1013.1,0.00,0,0.0,0.0,0,0.0,19.6,0.0,12.1,3.473
2008/12/02,08:20:01,251,56,233,0.0,5.3,13.6,19.9,60.4,1013.2,0.00,0,0.0,0.0,0,0.0,19.7,0.0,11.9,3.473
2008/12/02,08:30:01,249,59,233,0.3,5.8,13.9,20.1,59.6,1013.4,0.00,0,0.0,0.0,0,0.0,20.4,0.0,11.9,3.473
2008/12/02,08:40:01,239,53,230,0.2,5.9,13.3,20.0,59.6,1013.4,0.00,0,0.0,0.0,0,0.0,20.1,0.0,11.8,3.473
2008/12/02,08:50:01,239,58,236,0.1,5.9,13.8,20.3,56.4,1013.6,0.00,0,0.0,0.0,0,0.0,20.9,0.0,12.0,3.473
2008/12/02,09:00:01,252,64,244,0.2,5.8,13.5,20.7,60.0,1013.6,0.00,0,0.0,0.0,0,0.0,21.4,0.0,12.0,3.473
2008/12/02,09:10:01,236,55,219,0.2,6.2,14.7,20.3,60.7,1013.8,0.00,0,0.0,0.0,0,0.0,20.7,0.0,11.9,3.472
2008/12/02,09:20:01,242,57,236,0.1,6.0,14.3,20.2,59.7,1013.9,0.00,0,0.0,0.0,0,0.0,20.4,0.0,11.8,3.473
2008/12/02,09:30:01,246,60,230,0.1,6.0,13.7,20.2,59.6,1014.0,0.00,0,0.0,0.0,0,0.0,20.6,0.0,12.1,3.473
2008/12/02,09:40:01,239,56,229,0.2,6.1,15.0,20.1,58.3,1013.9,0.00,0,0.0,0.0,0,0.0,20.2,0.0,11.8,3.473
2008/12/02,09:50:01,243,62,232,0.1,5.9,13.8,20.2,58.1,1013.9,0.00,0,0.0,0.0,0,0.0,20.6,0.0,11.9,3.472
2008/12/02,10:00:01,242,59,239,0.0,6.1,13.5,20.1,59.3,1013.7,0.00,0,0.0,0.0,0,0.0,20.1,0.0,11.9,3.473
2008/12/02,10:10:01,244,60,239,0.1,6.0,13.0,20.2,58.0,1013.8,0.00,0,0.0,0.0,0,0.0,20.2,0.0,12.0,3.473
2008/12/02,10:20:01,251,63,232,0.1,6.1,15.8,20.5,59.6,1013.7,0.00,0,0.0,0.0,0,0.0,21.1,0.0,11.8,3.472
2008/12/02,10:30:01,245,62,242,0.1,5.8,15.1,20.9,57.7,1013.6,0.00,0,0.0,0.0,0,0.0,21.9,0.0,12.0,3.472
2008/12/02,10:40:01,247,66,242,0.0,6.1,14.6,20.8,58.0,1013.6,0.00,0,0.0,0.0,0,0.0,22.1,0.0,11.7,3.472
2008/12/02,10:50:01,248,67,240,0.1,6.1,14.3,20.7,56.5,1013.6,0.00,0,0.0,0.0,0,0.0,21.7,0.0,11.8,3.472
2008/12/02,11:00:01,255,69,240,0.2,5.7,13.6,21.0,57.6,1013.5,0.00,0,0.0,0.0,0,0.0,21.9,0.0,12.0,3.472
2008/12/02,11:10:01,244,61,237,0.2,6.6,14.2,20.9,55.0,1013.5,0.00,0,0.0,0.0,0,0.0,22.2,0.0,12.1,3.472
2008/12/02,11:20:01,240,49,226,0.0,7.0,14.4,21.5,56.2,1013.4,0.00,0,0.0,0.0,0,0.0,23.3,0.0,12.0,3.472
2008/12/02,11:30:01,249,58,233,0.2,6.8,14.9,21.2,57.3,1013.3,0.00,0,0.0,0.0,0,0.0,22.9,0.0,12.0,3.470
2008/12/02,11:40:01,237,43,217,0.1,7.4,14.3,21.4,56.4,1013.4,0.00,0,0.0,0.0,0,0.0,23.4,0.0,11.8,3.472
2008/12/02,11:50:01,239,48,226,0.1,6.7,13.8,21.3,57.3,1013.3,0.00,0,0.0,0.0,0,0.0,22.7,0.0,12.1,3.472
2008/12/02,12:00:01,234,47,224,0.0,6.7,13.3,21.2,56.2,1013.1,0.00,0,0.0,0.0,0,0.0,22.6,0.0,11.9,3.472
2008/12/02,12:10:01,221,40,219,0.2,7.0,12.1,21.6,56.1,1013.1,0.00,0,0.0,0.0,0,0.0,23.6,0.0,11.9,3.472
2008/12/02,12:20:01,224,44,213,0.1,6.8,13.2,21.7,56.5,1012.9,0.00,0,0.0,0.0,0,0.0,23.9,0.0,11.8,3.470
2008/12/02,12:30:01,235,42,221,0.1,6.9,15.3,21.7,56.3,1012.7,0.00,0,0.0,0.0,0,0.0,24.1,0.0,12.0,3.470
2008/12/02,12:40:01,224,41,217,0.1,7.2,13.7,21.6,55.0,1012.6,0.00,0,0.0,0.0,0,0.0,24.1,0.0,11.7,3.470
2008/12/02,12:50:01,249,50,223,0.3,7.1,13.9,21.0,57.4,1012.5,0.00,0,0.0,0.0,0,0.0,22.7,0.0,11.9,3.472
2008/12/02,13:00:01,230,46,226,0.1,6.8,14.0,21.0,58.2,1012.4,0.00,0,0.0,0.0,0,0.0,22.2,0.0,12.1,3.472
2008/12/02,13:10:01,232,43,223,0.1,7.0,14.1,21.5,56.6,1012.4,0.00,0,0.0,0.0,0,0.0,23.3,0.0,11.9,3.472
2008/12/02,13:20:01,228,43,220,0.1,7.0,14.4,21.2,57.2,1012.1,0.00,0,0.0,0.0,0,0.0,23.1,0.0,11.8,3.472
2008/12/02,13:30:01,223,42,222,0.4,6.9,13.0,21.6,54.2,1012.0,0.00,0,0.0,0.0,0,0.0,23.8,0.0,11.8,3.472
2008/12/02,13:40:01,234,44,222,0.3,6.6,13.0,21.7,54.8,1012.1,0.00,0,0.0,0.0,0,0.0,23.8,0.0,11.8,3.472
2008/12/02,13:50:01,223,43,221,0.2,6.9,14.1,21.4,55.0,1012.0,0.00,0,0.0,0.0,0,0.0,23.8,0.0,11.9,3.470
2008/12/02,14:00:01,225,43,220,0.2,7.0,14.9,21.5,54.2,1012.0,0.00,0,0.0,0.0,0,0.0,23.4,0.0,11.8,3.473
2008/12/02,14:10:01,226,42,221,0.2,7.1,14.1,21.4,54.7,1011.8,0.00,0,0.0,0.0,0,0.0,23.4,0.0,11.8,3.473
2008/12/02,14:20:01,226,43,223,0.0,7.0,13.2,21.3,53.8,1011.9,0.00,0,0.0,0.0,0,0.0,23.1,0.0,11.8,3.472
2008/12/02,14:30:01,228,48,227,0.1,6.2,12.4,21.4,53.6,1011.8,0.00,0,0.0,0.0,0,0.0,23.6,0.0,12.0,3.472
2008/12/02,14:40:01,234,45,221,0.1,6.3,12.8,21.4,54.9,1011.8,0.00,0,0.0,0.0,0,0.0,23.4,0.0,11.8,3.470